This is the latest recevied weather packets stored in our database for station/object SP3OTE-2. If no packets are shown the sender has not sent any weather packets the latest 10 day(s).
| Time | Temp. | Humidity | Pressure | Rain* | Wind** | Luminosity | Snow |
|---|---|---|---|---|---|---|---|
| 1778028530 | 12.22° C | 95% | 1005 hPa | - | - | - | - |
| 1778027929 | 12.78° C | 95% | 1005.2 hPa | - | - | - | - |
| 1778027329 | 12.78° C | 93% | 1005.2 hPa | - | - | - | - |
| 1778026729 | 12.78° C | 93% | 1005.2 hPa | - | - | - | - |
| 1778026129 | 12.78° C | 91% | 1005.3 hPa | - | - | - | - |
| 1778025528 | 12.78° C | 89% | 1005.4 hPa | - | - | - | - |
| 1778024928 | 12.78° C | 88% | 1005.3 hPa | - | - | - | - |
| 1778024328 | 13.33° C | 86% | 1005.4 hPa | - | - | - | - |
| 1778023727 | 13.33° C | 85% | 1005.5 hPa | - | - | - | - |
| 1778023128 | 13.89° C | 84% | 1005.7 hPa | - | - | - | - |
| 1778022527 | 13.89° C | 82% | 1005.7 hPa | - | - | - | - |
| 1778021927 | 13.89° C | 80% | 1005.8 hPa | - | - | - | - |
| 1778021327 | 14.44° C | 79% | 1005.8 hPa | - | - | - | - |
| 1778020726 | 15° C | 78% | 1005.7 hPa | - | - | - | - |
| 1778020126 | 15° C | 75% | 1005.9 hPa | - | - | - | - |
| 1778019526 | 15.56° C | 75% | 1006 hPa | - | - | - | - |
| 1778018926 | 15.56° C | 75% | 1006 hPa | - | - | - | - |
| 1778018326 | 16.11° C | 75% | 1006.2 hPa | - | - | - | - |
| 1778017725 | 16.11° C | 73% | 1006.3 hPa | - | - | - | - |
| 1778017125 | 16.67° C | 73% | 1006.3 hPa | - | - | - | - |
| 1778016525 | 16.67° C | 72% | 1006.3 hPa | - | - | - | - |
| 1778015924 | 17.22° C | 70% | 1006.3 hPa | - | - | - | - |
| 1778015324 | 17.22° C | 71% | 1006.3 hPa | - | - | - | - |
| 1778014724 | 17.22° C | 71% | 1006.3 hPa | - | - | - | - |
| 1778014123 | 17.78° C | 72% | 1006.1 hPa | - | - | - | - |
* Rain since midnight (hover to see other rain measurements)
** Current wind speed in m/s (hover to see current wind gust speed)